Weather History for PAOM - February, 2014

Change the Weather History Date:

Sunday, February 9, 2014

  Actual Average Record
Temperature  
Mean Temperature 14 °F -  
Max Temperature 26 °F 15 °F 40 °F (1947)
Min Temperature 2 °F -1 °F -42 °F (1949)
Degree Days  
Heating Degree Days 51 58  
Month to date heating degree days 406 530  
Since 1 July heating degree days 7119 8201  
Cooling Degree Days 0    
Month to date cooling degree days 0  
Year to date cooling degree days 0  
Moisture  
Dew Point 4 °F    
Average Humidity 0    
Maximum Humidity 0    
Minimum Humidity 0    
Precipitation  
Precipitation 0.00 in 0.03 in 0.46 in (1922)
Month to date precipitation 0.01 0.29  
Year to date precipitation 1.58 1.23  
Snow  
Snow 0.00 in 0.40 in 5.50 in (1922)
Month to date snowfall 0.6 3.7  
Since 1 July snowfall 45.8 48.2  
Snow Depth 4.00 in    
Sea Level Pressure  
Sea Level Pressure 30.57 in    
Wind  
Wind Speed 4 mph (North)    
Max Wind Speed 18 mph    
Max Gust Speed 22 mph    
Visibility 10 miles    
Events      
T = Trace of Precipitation, MM = Missing Value Source: NWS Daily Summary

Daily Weather History Graph

Daily Weather History Graph

Search for Another Location

Airport or City:

Trip Planner

Search our weather history database for the weather conditions in past years. The results will help you decide how hot, cold, wet, or windy it might be!

Date:

Astronomy

Feb. 09, 2014 Rise Set
Actual Time 10:18 AM AKST 6:15 PM AKST
Civil Twilight 9:23 AM AKST 7:09 PM AKST
Nautical Twilight 8:26 AM AKST 8:07 PM AKST
Astronomical Twilight 7:30 AM AKST 9:03 PM AKST
Moon 1:17 PM AKST (2/9) 7:21 AM AKST (2/9)
Length of Visible Light 9h 45m
Length of Day
7h 56m
Waxing Gibbous, 78% of the Moon is Illuminated
Feb 9
Waxing Gibbous
Feb 14
Full
Feb 22
Last Quarter
Feb 28
New
Mar 8
First Quarter

Hourly Weather History & Observations

Time (AKST) Temp. Windchill Dew Point Humidity Pressure Visibility Wind Dir Wind Speed Gust Speed Precip Events Conditions
12:53 AM 7.0 °F -1.7 °F 3.0 °F 84% 30.64 in 10.0 mi NW 4.6 mph - N/A   Scattered Clouds
1:53 AM 7.0 °F 0.1 °F 1.0 °F 77% 30.64 in 10.0 mi NNW 3.5 mph - N/A   Partly Cloudy
3:53 AM 3.9 °F - 1.0 °F 88% 30.62 in 10.0 mi Calm Calm - N/A   Scattered Clouds
4:53 AM 3.0 °F - -0.0 °F 87% 30.62 in 10.0 mi Calm Calm - N/A   Scattered Clouds
5:53 AM 5.0 °F -2.1 °F -0.0 °F 80% 30.61 in 10.0 mi NE 3.5 mph - N/A   Scattered Clouds
6:53 AM 3.9 °F - -0.0 °F 84% 30.59 in 10.0 mi Calm Calm - N/A   Scattered Clouds
7:53 AM 7.0 °F 0.1 °F 1.0 °F 77% 30.60 in 10.0 mi NNE 3.5 mph - N/A   Overcast
8:53 AM 9.0 °F - 3.9 °F 80% 30.59 in 10.0 mi Calm Calm - N/A   Overcast
9:53 AM 10.0 °F - 3.9 °F 76% 30.59 in 10.0 mi Calm Calm - N/A   Scattered Clouds
10:53 AM 12.9 °F 6.9 °F 1.0 °F 59% 30.59 in 10.0 mi WNW 3.5 mph - N/A   Partly Cloudy
11:53 AM 16.0 °F 10.4 °F 1.9 °F 54% 30.59 in 10.0 mi SSW 3.5 mph - N/A   Partly Cloudy
12:53 PM 23.0 °F 8.7 °F 3.9 °F 44% 30.58 in 10.0 mi NNE 18.4 mph - N/A   Clear
1:53 PM 25.0 °F 15.5 °F 3.9 °F 41% 30.59 in 10.0 mi North 9.2 mph 16.1 mph N/A   Clear
2:53 PM 25.0 °F 11.7 °F 7.0 °F 46% 30.57 in 10.0 mi North 17.3 mph - N/A   Clear
3:53 PM 23.0 °F 12.4 °F 9.0 °F 55% 30.55 in 10.0 mi North 10.4 mph - N/A   Partly Cloudy
4:53 PM 19.9 °F 12.1 °F 9.0 °F 62% 30.55 in 10.0 mi West 5.8 mph - N/A   Partly Cloudy
5:53 PM 18.0 °F - 8.1 °F 65% 30.53 in 10.0 mi Calm Calm - N/A   Partly Cloudy
6:53 PM 10.9 °F 4.7 °F 5.0 °F 77% 30.50 in 10.0 mi NNE 3.5 mph - N/A   Partly Cloudy
7:53 PM 10.0 °F 3.6 °F 5.0 °F 80% 30.54 in 10.0 mi West 3.5 mph - N/A   Partly Cloudy
8:53 PM 12.9 °F 2.6 °F 5.0 °F 71% 30.50 in 10.0 mi East 6.9 mph - N/A   Partly Cloudy
9:53 PM 12.9 °F - 6.1 °F 74% 30.49 in 10.0 mi Calm Calm - N/A   Partly Cloudy
10:53 PM 10.9 °F - 6.1 °F 81% 30.48 in 10.0 mi Calm Calm - N/A   Partly Cloudy
11:53 PM 12.0 °F 0.5 °F 3.0 °F 67% 30.49 in 10.0 mi NE 8.1 mph - N/A   Partly Cloudy